Location: NJAA Observatory
(40.6819°N, 74.8979°W)
Time: 09:13:29
(UTC-04:00)

Vanguard 1 - All Passes

Search period start: 24 May 2015 00:00
Search period end: 03 June 2015 00:00
Orbit: 650 x 3835 km, 34.3° (Epoch: 22 May)

Date Brightness Start Highest point End Pass type
(mag) Time Alt. Az. Time Alt. Az. Time Alt. Az.
24 May - 02:19:44 10° W 02:37:14 72° S 03:00:53 10° ESE visible
24 May - 04:42:58 10° W 05:03:49 57° SSW 05:24:53 10° SE visible
24 May - 07:10:00 10° W 07:28:24 29° SW 07:43:09 10° S daylight
24 May - 22:01:52 10° SSW 22:11:08 35° SE 22:26:43 10° E visible
25 May - 00:19:56 10° WSW 00:33:22 66° SSE 00:55:30 10° E visible
25 May - 02:41:06 10° W 02:59:01 70° S 03:22:30 10° ESE visible
25 May - 05:04:42 10° W 05:25:17 51° SSW 05:45:34 10° SE visible
25 May - 07:33:23 10° W 07:49:23 22° SW 08:01:49 10° S daylight
25 May - 20:11:22 10° SE 20:12:32 10° SE 20:14:55 10° ESE daylight
25 May - 22:22:08 10° SSW 22:31:57 43° SE 22:49:00 10° E visible
26 May - 00:41:00 10° WSW 00:54:53 69° S 01:17:28 10° E visible
26 May - 03:02:31 10° W 03:20:46 67° SSW 03:43:59 10° ESE visible
26 May - 05:26:35 10° W 05:46:39 43° SSW 06:05:57 10° SSE daylight
26 May - 07:58:17 10° W 08:10:22 15° SW 08:18:57 10° SSW daylight
26 May - 20:27:49 10° SSE 20:32:59 17° SE 20:40:48 10° E daylight
26 May - 22:42:40 10° SW 22:52:55 51° SSE 23:11:08 10° E visible
27 May - 01:02:10 10° WSW 01:16:29 71° S 01:39:22 10° E visible
27 May - 03:23:59 10° W 03:42:26 62° SSW 04:05:15 10° SE visible
27 May - 05:48:43 10° W 06:07:56 36° SW 06:25:54 10° SSE daylight
27 May - 20:46:54 10° S 20:53:31 24° SE 21:04:02 10° E visible
27 May - 23:03:25 10° SW 23:14:04 58° SSE 23:33:10 10° E visible
28 May - 01:23:23 10° W 01:38:09 71° S 02:01:11 10° ESE visible
28 May - 03:45:30 10° W 04:04:04 56° SSW 04:26:15 10° SE visible
28 May - 06:11:16 10° W 06:29:08 29° SW 06:45:17 10° S daylight
28 May - 21:06:44 10° SSW 21:14:08 31° SE 21:26:36 10° E visible
28 May - 23:24:19 10° WSW 23:35:21 64° SSE 23:55:11 10° E visible
29 May - 01:44:40 10° W 01:59:49 69° S 02:22:54 10° ESE visible
29 May - 04:07:07 10° W 04:25:36 49° SSW 04:46:58 10° SE visible
29 May - 06:34:33 10° W 06:50:19 22° SW 07:03:50 10° S daylight
29 May - 21:26:58 10° SSW 21:34:54 39° SE 21:48:50 10° E visible
29 May - 23:45:20 10° WSW 23:56:45 67° S 00:17:10 10° E visible
30 May - 02:05:58 10° W 02:21:29 65° SSW 02:44:26 10° ESE visible
30 May - 04:28:55 10° W 04:47:04 42° SSW 05:07:19 10° SSE visible
30 May - 06:59:23 10° W 07:11:32 15° SW 07:20:49 10° SSW daylight
30 May - 19:33:30 10° SSE 19:36:33 13° SE 19:40:58 10° ESE daylight
30 May - 21:47:30 10° SW 21:55:48 47° SSE 22:10:55 10° E visible
31 May - 00:06:26 10° WSW 00:18:14 69° S 00:39:06 10° E visible
31 May - 02:27:20 10° W 02:43:06 60° SSW 03:05:45 10° SE visible
31 May - 04:50:58 10° W 05:08:28 35° SW 05:27:12 10° SSE visible
31 May - 19:52:09 10° S 19:57:05 20° SE 20:04:32 10° E daylight
31 May - 22:08:14 10° SW 22:16:52 55° SSE 22:32:55 10° E visible
01 Jun - 00:27:36 10° W 00:39:46 69° S 01:00:58 10° ESE visible
01 Jun - 02:48:46 10° W 03:04:42 54° SSW 03:26:48 10° SE visible
01 Jun - 05:13:27 10° W 05:29:50 28° SW 05:46:30 10° S daylight
01 Jun - 20:11:52 10° SSW 20:17:42 27° SE 20:27:05 10° E daylight
01 Jun - 22:29:05 10° WSW 22:38:03 61° SSE 22:54:53 10° E visible
02 Jun - 00:48:47 10° W 01:01:19 66° S 01:22:42 10° ESE visible
02 Jun - 03:10:19 10° W 03:26:16 47° SSW 03:47:31 10° SE visible
02 Jun - 05:36:43 10° W 05:51:14 21° SW 06:04:52 10° S daylight
02 Jun - 20:32:05 10° SSW 20:38:26 35° SSE 20:49:15 10° E daylight
02 Jun - 22:50:04 10° WSW 22:59:21 65° S 23:16:50 10° E visible
